Time,TemperatureF,DewpointF,PressureIn,WindDirection,WindDirectionDegrees,WindSpeedMPH,WindSpeedGustMPH,Humidity,HourlyPrecipIn,Conditions,Clouds,dailyrainin,SoftwareType,DateUTC
2013-12-29 00:01:00,18.0,9.5,30.13,ESE,119,28.6,28.6,69,0.00,CLR,SKC,0.00,WeatherDisplay:10.37,2013-12-29 06:01:00,
2013-12-29 00:06:00,17.3,8.2,30.12,SE,127,30.7,30.7,67,0.00,CLR,SKC,0.00,WeatherDisplay:10.37,2013-12-29 06:06:00,
2013-12-29 00:11:00,16.8,7.7,30.13,ESE,117,28.8,28.8,67,0.00,CLR,SKC,0.00,WeatherDisplay:10.37,2013-12-29 06:11:00,
2013-12-29 00:16:00,16.5,7.8,30.13,SE,140,29.9,29.9,68,0.00,CLR,SKC,0.00,WeatherDisplay:10.37,2013-12-29 06:16:00,
2013-12-29 00:21:00,16.1,7.4,30.13,SE,124,25.4,25.4,68,0.00,CLR,SKC,0.00,WeatherDisplay:10.37,2013-12-29 06:21:00,
2013-12-29 00:26:00,16.0,7.3,30.13,SE,124,28.6,28.6,68,0.00,CLR,SKC,0.00,WeatherDisplay:10.37,2013-12-29 06:26:00,
2013-12-29 00:31:00,15.9,7.5,30.13,SE,143,25.4,25.4,69,0.00,CLR,SKC,0.00,WeatherDisplay:10.37,2013-12-29 06:31:00,
2013-12-29 00:36:00,15.9,7.5,30.13,SSE,154,19.1,19.1,69,0.00,CLR,SKC,0.00,WeatherDisplay:10.37,2013-12-29 06:36:00,
2013-12-29 00:41:00,15.8,7.4,30.13,SSE,158,25.4,25.4,69,0.00,CLR,SKC,0.00,WeatherDisplay:10.37,2013-12-29 06:41:00,
2013-12-29 00:46:00,15.8,7.7,30.13,ESE,117,28.6,28.6,70,0.00,CLR,SKC,0.00,WeatherDisplay:10.37,2013-12-29 06:46:00,
2013-12-29 00:51:00,15.6,6.9,30.14,SE,144,31.8,31.8,68,0.00,CLR,SKC,0.00,WeatherDisplay:10.37,2013-12-29 06:51:00,
2013-12-29 00:56:00,15.4,7.0,30.13,South,169,26.5,26.5,69,0.00,CLR,SKC,0.00,WeatherDisplay:10.37,2013-12-29 06:56:00,
2013-12-29 01:01:00,15.1,6.4,30.14,ESE,123,25.4,25.4,68,0.00,CLR,SKC,0.00,WeatherDisplay:10.37,2013-12-29 07:01:00,
2013-12-29 01:06:00,14.4,5.8,30.14,SE,129,24.4,24.4,68,0.00,CLR,SKC,0.00,WeatherDisplay:10.37,2013-12-29 07:06:00,
2013-12-29 01:11:00,14.0,5.7,30.14,ESE,117,27.6,27.6,69,0.00,CLR,SKC,0.00,WeatherDisplay:10.37,2013-12-29 07:11:00,
2013-12-29 01:16:00,13.9,5.6,30.14,ESE,113,26.5,26.5,69,0.00,CLR,SKC,0.00,WeatherDisplay:10.37,2013-12-29 07:16:00,
2013-12-29 01:21:00,13.6,5.3,30.14,SE,124,21.2,21.2,69,0.00,CLR,SKC,0.00,WeatherDisplay:10.37,2013-12-29 07:21:00,
2013-12-29 01:26:00,13.4,5.1,30.14,SSW,196,27.6,27.6,69,0.00,CLR,SKC,0.00,WeatherDisplay:10.37,2013-12-29 07:26:00,
2013-12-29 01:31:00,13.3,5.3,30.14,ESE,119,27.6,27.6,70,0.00,CLR,SKC,0.00,WeatherDisplay:10.37,2013-12-29 07:31:00,
2013-12-29 01:36:00,13.3,5.3,30.15,South,176,24.4,24.4,70,0.00,CLR,SKC,0.00,WeatherDisplay:10.37,2013-12-29 07:36:00,
2013-12-29 01:41:00,13.2,5.2,30.14,ESE,118,21.2,21.2,70,0.00,CLR,SKC,0.00,WeatherDisplay:10.37,2013-12-29 07:41:00,
2013-12-29 01:46:00,13.1,5.1,30.15,SE,139,22.3,22.3,70,0.00,CLR,SKC,0.00,WeatherDisplay:10.37,2013-12-29 07:46:00,
2013-12-29 01:51:00,13.0,5.0,30.15,ESE,118,28.8,28.8,70,0.00,CLR,SKC,0.00,WeatherDisplay:10.37,2013-12-29 07:51:00,
2013-12-29 01:56:00,12.5,4.6,30.15,ESE,118,27.6,27.6,70,0.00,CLR,SKC,0.00,WeatherDisplay:10.37,2013-12-29 07:56:00,
2013-12-29 02:01:00,12.3,4.4,30.15,SE,132,20.1,20.1,70,0.00,CLR,SKC,0.00,WeatherDisplay:10.37,2013-12-29 08:01:00,
2013-12-29 02:06:00,12.1,4.2,30.16,ESE,123,23.3,23.3,70,0.00,CLR,SKC,0.00,WeatherDisplay:10.37,2013-12-29 08:06:00,
2013-12-29 02:11:00,12.0,4.1,30.16,SE,137,27.6,27.6,70,0.00,CLR,SKC,0.00,WeatherDisplay:10.37,2013-12-29 08:11:00,
2013-12-29 02:16:00,12.1,4.5,30.16,SE,129,26.5,26.5,71,0.00,CLR,SKC,0.00,WeatherDisplay:10.37,2013-12-29 08:16:00,
2013-12-29 02:21:00,12.1,4.5,30.17,SSE,162,22.3,22.3,71,0.00,CLR,SKC,0.00,WeatherDisplay:10.37,2013-12-29 08:21:00,
2013-12-29 02:26:00,11.8,4.2,30.17,SSE,158,24.4,24.4,71,0.00,CLR,SKC,0.00,WeatherDisplay:10.37,2013-12-29 08:26:00,
2013-12-29 02:31:00,11.7,4.1,30.17,SSE,160,21.2,21.2,71,0.00,CLR,SKC,0.00,WeatherDisplay:10.37,2013-12-29 08:31:00,
2013-12-29 02:36:00,11.6,4.0,30.18,SE,143,25.3,25.3,71,0.00,CLR,SKC,0.00,WeatherDisplay:10.37,2013-12-29 08:36:00,
2013-12-29 02:41:00,11.5,3.9,30.18,SE,128,24.4,24.4,71,0.00,CLR,SKC,0.00,WeatherDisplay:10.37,2013-12-29 08:41:00,
2013-12-29 02:46:00,11.3,3.7,30.18,SE,134,33.4,33.4,71,0.00,CLR,SKC,0.00,WeatherDisplay:10.37,2013-12-29 08:46:00,
2013-12-29 02:51:00,11.3,4.0,30.18,SSE,165,25.4,25.4,72,0.00,CLR,SKC,0.00,WeatherDisplay:10.37,2013-12-29 08:51:00,
2013-12-29 02:56:00,11.3,4.0,30.18,SSE,150,19.6,19.6,72,0.00,CLR,SKC,0.00,WeatherDisplay:10.37,2013-12-29 08:56:00,
2013-12-29 03:01:00,11.2,3.9,30.19,ESE,108,19.1,19.1,72,0.00,CLR,SKC,0.00,WeatherDisplay:10.37,2013-12-29 09:01:00,
2013-12-29 03:06:00,11.0,3.4,30.19,South,173,28.8,28.8,71,0.00,CLR,SKC,0.00,WeatherDisplay:10.37,2013-12-29 09:06:00,
2013-12-29 03:11:00,10.8,3.5,30.19,SSE,160,24.4,24.4,72,0.00,CLR,SKC,0.00,WeatherDisplay:10.37,2013-12-29 09:11:00,
2013-12-29 03:16:00,10.7,3.4,30.20,South,171,23.3,23.3,72,0.00,CLR,SKC,0.00,WeatherDisplay:10.37,2013-12-29 09:16:00,
2013-12-29 03:21:00,10.7,3.7,30.21,ESE,122,24.2,24.2,73,0.00,CLR,SKC,0.00,WeatherDisplay:10.37,2013-12-29 09:21:00,
2013-12-29 03:26:00,10.7,3.7,30.21,SE,146,23.3,23.3,73,0.00,CLR,SKC,0.00,WeatherDisplay:10.37,2013-12-29 09:26:00,
2013-12-29 03:31:00,10.7,3.7,30.21,SSE,148,23.3,23.3,73,0.00,CLR,SKC,0.00,WeatherDisplay:10.37,2013-12-29 09:31:00,
2013-12-29 03:36:00,10.7,4.0,30.21,ESE,105,24.4,24.4,74,0.00,CLR,SKC,0.00,WeatherDisplay:10.37,2013-12-29 09:36:00,
2013-12-29 03:41:00,10.7,4.0,30.21,SE,134,20.7,20.7,74,0.00,CLR,SKC,0.00,WeatherDisplay:10.37,2013-12-29 09:41:00,
2013-12-29 03:46:00,10.6,3.6,30.21,SE,142,33.4,33.4,73,0.00,CLR,SKC,0.00,WeatherDisplay:10.37,2013-12-29 09:46:00,
2013-12-29 03:51:00,10.5,3.6,30.21,SE,127,17.3,17.3,73,0.00,CLR,SKC,0.00,WeatherDisplay:10.37,2013-12-29 09:51:00,
2013-12-29 03:56:00,10.4,3.5,30.21,SE,129,20.7,20.7,73,0.00,CLR,SKC,0.00,WeatherDisplay:10.37,2013-12-29 09:56:00,
2013-12-29 04:01:00,10.6,3.9,30.21,ESE,120,19.1,19.1,74,0.00,CLR,SKC,0.00,WeatherDisplay:10.37,2013-12-29 10:01:00,
2013-12-29 04:06:00,10.5,3.3,30.21,SE,136,29.9,29.9,72,0.00,CLR,SKC,0.00,WeatherDisplay:10.37,2013-12-29 10:06:00,
2013-12-29 04:11:00,10.5,3.3,30.22,SSE,160,23.3,23.3,72,0.00,CLR,SKC,0.00,WeatherDisplay:10.37,2013-12-29 10:11:00,
2013-12-29 04:16:00,10.6,3.0,30.22,SE,135,24.2,24.2,71,0.00,CLR,SKC,0.00,WeatherDisplay:10.37,2013-12-29 10:16:00,
2013-12-29 04:21:00,10.7,3.1,30.22,South,169,21.2,21.2,71,0.00,CLR,SKC,0.00,WeatherDisplay:10.37,2013-12-29 10:21:00,
2013-12-29 04:26:00,10.7,2.8,30.22,SE,127,23.3,23.3,70,0.00,CLR,SKC,0.00,WeatherDisplay:10.37,2013-12-29 10:26:00,
2013-12-29 04:31:00,10.8,2.9,30.23,SSE,165,25.3,25.3,70,0.00,CLR,SKC,0.00,WeatherDisplay:10.37,2013-12-29 10:31:00,
2013-12-29 04:36:00,10.9,3.0,30.23,ESE,122,21.2,21.2,70,0.00,CLR,SKC,0.00,WeatherDisplay:10.37,2013-12-29 10:36:00,
2013-12-29 04:41:00,10.8,2.9,30.23,SE,129,24.4,24.4,70,0.00,CLR,SKC,0.00,WeatherDisplay:10.37,2013-12-29 10:41:00,
2013-12-29 04:46:00,10.7,2.8,30.24,SE,139,19.6,19.6,70,0.00,CLR,SKC,0.00,WeatherDisplay:10.37,2013-12-29 10:46:00,
2013-12-29 04:51:00,10.7,2.5,30.24,SSE,153,21.2,21.2,69,0.00,CLR,SKC,0.00,WeatherDisplay:10.37,2013-12-29 10:51:00,
2013-12-29 04:56:00,10.7,2.2,30.23,South,174,28.8,28.8,68,0.00,CLR,SKC,0.00,WeatherDisplay:10.37,2013-12-29 10:56:00,
2013-12-29 05:01:00,10.7,2.2,30.24,ESE,108,23.3,23.3,68,0.00,CLR,SKC,0.00,WeatherDisplay:10.37,2013-12-29 11:01:00,
2013-12-29 05:06:00,10.6,2.1,30.23,SE,134,21.9,21.9,68,0.00,CLR,SKC,0.00,WeatherDisplay:10.37,2013-12-29 11:06:00,
2013-12-29 05:11:00,10.4,1.6,30.24,SE,139,28.6,28.6,67,0.00,CLR,SKC,0.00,WeatherDisplay:10.37,2013-12-29 11:11:00,
2013-12-29 05:16:00,10.3,1.8,30.25,ESE,114,20.7,20.7,68,0.00,CLR,SKC,0.00,WeatherDisplay:10.37,2013-12-29 11:16:00,
2013-12-29 05:22:00,9.9,0.8,30.25,ESE,116,27.6,27.6,66,0.00,CLR,SKC,0.00,WeatherDisplay:10.37,2013-12-29 11:22:00,
2013-12-29 05:27:00,9.5,0.4,30.26,SE,144,31.1,31.1,66,0.00,CLR,SKC,0.00,WeatherDisplay:10.37,2013-12-29 11:27:00,
2013-12-29 05:32:00,9.3,0.2,30.26,East,94,26.5,26.5,66,0.00,CLR,SKC,0.00,WeatherDisplay:10.37,2013-12-29 11:32:00,
2013-12-29 05:37:00,9.2,0.5,30.26,SE,134,23.0,23.0,67,0.00,CLR,SKC,0.00,WeatherDisplay:10.37,2013-12-29 11:37:00,
2013-12-29 05:42:00,9.1,0.4,30.26,ESE,105,29.9,29.9,67,0.00,CLR,SKC,0.00,WeatherDisplay:10.37,2013-12-29 11:42:00,
2013-12-29 05:47:00,8.8,0.1,30.27,ESE,106,26.5,26.5,67,0.00,CLR,SKC,0.00,WeatherDisplay:10.37,2013-12-29 11:47:00,
2013-12-29 05:52:00,8.8,-0.3,30.27,SE,136,27.6,27.6,66,0.00,CLR,SKC,0.00,WeatherDisplay:10.37,2013-12-29 11:52:00,
2013-12-29 05:57:00,8.4,-0.6,30.27,SSE,147,27.6,27.6,66,0.00,CLR,SKC,0.00,WeatherDisplay:10.37,2013-12-29 11:57:00,
2013-12-29 06:02:00,8.3,-0.7,30.28,SE,139,24.4,24.4,66,0.00,CLR,SKC,0.00,WeatherDisplay:10.37,2013-12-29 12:02:00,
2013-12-29 06:07:00,8.1,-0.9,30.28,ESE,110,22.3,22.3,66,0.00,CLR,SKC,0.00,WeatherDisplay:10.37,2013-12-29 12:07:00,
2013-12-29 06:12:00,8.1,-0.6,30.28,SE,141,19.1,19.1,67,0.00,CLR,SKC,0.00,WeatherDisplay:10.37,2013-12-29 12:12:00,
2013-12-29 06:17:00,8.0,-0.7,30.28,SE,132,20.1,20.1,67,0.00,CLR,SKC,0.00,WeatherDisplay:10.37,2013-12-29 12:17:00,
2013-12-29 06:22:00,7.8,-1.5,30.29,SE,145,33.4,33.4,65,0.00,CLR,SKC,0.00,WeatherDisplay:10.37,2013-12-29 12:22:00,
2013-12-29 06:27:00,7.3,-2.3,30.30,SE,124,20.7,20.7,64,0.00,CLR,SKC,0.00,WeatherDisplay:10.37,2013-12-29 12:27:00,
2013-12-29 06:32:00,7.0,-3.0,30.30,SSE,153,27.6,27.6,63,0.00,CLR,SKC,0.00,WeatherDisplay:10.37,2013-12-29 12:32:00,
2013-12-29 06:37:00,6.9,-3.1,30.31,South,188,27.6,27.6,63,0.00,CLR,SKC,0.00,WeatherDisplay:10.37,2013-12-29 12:37:00,
2013-12-29 06:42:00,6.9,-3.1,30.31,SE,137,24.4,24.4,63,0.00,CLR,SKC,0.00,WeatherDisplay:10.37,2013-12-29 12:42:00,
2013-12-29 06:47:00,6.9,-3.1,30.31,SSE,152,26.5,26.5,63,0.00,CLR,SKC,0.00,WeatherDisplay:10.37,2013-12-29 12:47:00,
2013-12-29 06:52:00,6.9,-3.1,30.31,SSW,206,28.8,28.8,63,0.00,CLR,SKC,0.00,WeatherDisplay:10.37,2013-12-29 12:52:00,
2013-12-29 06:57:00,6.9,-3.1,30.32,ESE,106,26.5,26.5,63,0.00,CLR,SKC,0.00,WeatherDisplay:10.37,2013-12-29 12:57:00,
2013-12-29 07:02:00,6.8,-2.8,30.32,SSE,147,23.3,23.3,64,0.00,CLR,SKC,0.00,WeatherDisplay:10.37,2013-12-29 13:02:00,
2013-12-29 07:07:00,6.7,-2.9,30.33,SE,134,20.7,20.7,64,0.00,CLR,SKC,0.00,WeatherDisplay:10.37,2013-12-29 13:07:00,
2013-12-29 07:12:00,6.7,-2.9,30.33,South,169,21.2,21.2,64,0.00,CLR,SKC,0.00,WeatherDisplay:10.37,2013-12-29 13:12:00,
2013-12-29 07:17:00,6.7,-2.6,30.33,ESE,107,16.1,16.1,65,0.00,CLR,SKC,0.00,WeatherDisplay:10.37,2013-12-29 13:17:00,
2013-12-29 07:22:00,6.7,-2.3,30.33,ESE,118,15.0,15.0,66,0.00,CLR,SKC,0.00,WeatherDisplay:10.37,2013-12-29 13:22:00,
2013-12-29 07:27:00,6.8,-2.5,30.34,SE,139,20.7,20.7,65,0.00,CLR,SKC,0.00,WeatherDisplay:10.37,2013-12-29 13:27:00,
2013-12-29 07:32:00,6.9,-2.7,30.34,SE,127,20.7,20.7,64,0.00,CLR,SKC,0.00,WeatherDisplay:10.37,2013-12-29 13:32:00,
2013-12-29 07:37:00,6.8,-3.8,30.34,South,186,23.0,23.0,61,0.00,CLR,SKC,0.00,WeatherDisplay:10.37,2013-12-29 13:37:00,
2013-12-29 07:42:00,6.7,-3.9,30.34,East,99,19.6,19.6,61,0.00,CLR,SKC,0.00,WeatherDisplay:10.37,2013-12-29 13:42:00,
2013-12-29 07:47:00,6.6,-5.1,30.35,ESE,117,21.2,21.2,58,0.00,CLR,SKC,0.00,WeatherDisplay:10.37,2013-12-29 13:47:00,
2013-12-29 07:52:00,6.3,-8.8,30.35,SSE,157,23.3,23.3,49,0.00,CLR,SKC,0.00,WeatherDisplay:10.37,2013-12-29 13:52:00,
2013-12-29 07:57:00,6.0,-9.5,30.36,SSE,148,17.0,17.0,48,0.00,CLR,SKC,0.00,WeatherDisplay:10.37,2013-12-29 13:57:00,
2013-12-29 08:02:00,6.0,-9.1,30.36,SE,130,20.7,20.7,49,0.00,CLR,SKC,0.00,WeatherDisplay:10.37,2013-12-29 14:02:00,
2013-12-29 08:07:00,6.0,-9.5,30.36,SE,136,20.1,20.1,48,0.00,CLR,SKC,0.00,WeatherDisplay:10.37,2013-12-29 14:07:00,
2013-12-29 08:12:00,5.9,-9.2,30.36,SE,146,18.4,18.4,49,0.00,CLR,SKC,0.00,WeatherDisplay:10.37,2013-12-29 14:12:00,
2013-12-29 08:17:00,5.9,-8.0,30.36,SE,127,18.4,18.4,52,0.00,CLR,SKC,0.00,WeatherDisplay:10.37,2013-12-29 14:17:00,
2013-12-29 08:22:00,5.6,-8.3,30.36,SE,136,22.3,22.3,52,0.00,CLR,SKC,0.00,WeatherDisplay:10.37,2013-12-29 14:22:00,
2013-12-29 08:27:00,5.5,-8.4,30.36,SE,135,23.3,23.3,52,0.00,CLR,SKC,0.00,WeatherDisplay:10.37,2013-12-29 14:27:00,
2013-12-29 08:32:00,5.4,-9.2,30.36,ESE,118,26.5,26.5,50,0.00,CLR,SKC,0.00,WeatherDisplay:10.37,2013-12-29 14:32:00,
2013-12-29 08:37:00,5.4,-9.7,30.36,SE,132,20.1,20.1,49,0.00,CLR,SKC,0.00,WeatherDisplay:10.37,2013-12-29 14:37:00,
2013-12-29 08:42:00,5.4,-10.5,30.37,ESE,111,21.2,21.2,47,0.00,CLR,SKC,0.00,WeatherDisplay:10.37,2013-12-29 14:42:00,
2013-12-29 08:47:00,5.5,-10.0,30.37,SE,143,19.6,19.6,48,0.00,CLR,SKC,0.00,WeatherDisplay:10.37,2013-12-29 14:47:00,
2013-12-29 08:52:00,5.6,-10.3,30.37,SE,127,20.7,20.7,47,0.00,CLR,SKC,0.00,WeatherDisplay:10.37,2013-12-29 14:52:00,
2013-12-29 08:57:00,5.8,-10.1,30.37,ESE,106,18.0,18.0,47,0.00,CLR,SKC,0.00,WeatherDisplay:10.37,2013-12-29 14:57:00,
2013-12-29 09:02:00,5.9,-10.0,30.37,ESE,119,18.4,18.4,47,0.00,CLR,SKC,0.00,WeatherDisplay:10.37,2013-12-29 15:02:00,
2013-12-29 09:07:00,5.9,-10.9,30.38,ESE,120,24.4,24.4,45,0.00,CLR,SKC,0.00,WeatherDisplay:10.37,2013-12-29 15:07:00,
2013-12-29 09:12:00,6.1,-10.7,30.38,ESE,116,19.1,19.1,45,0.00,CLR,SKC,0.00,WeatherDisplay:10.37,2013-12-29 15:12:00,
2013-12-29 09:17:00,6.2,-11.1,30.38,SE,128,20.7,20.7,44,0.00,CLR,SKC,0.00,WeatherDisplay:10.37,2013-12-29 15:17:00,
2013-12-29 09:22:00,6.2,-11.1,30.39,SSE,149,18.4,18.4,44,0.00,CLR,SKC,0.00,WeatherDisplay:10.37,2013-12-29 15:22:00,
2013-12-29 09:27:00,6.5,-10.8,30.39,ESE,117,21.2,21.2,44,0.00,CLR,SKC,0.00,WeatherDisplay:10.37,2013-12-29 15:27:00,
2013-12-29 09:32:00,6.9,-10.5,30.39,SE,146,16.1,16.1,44,0.00,CLR,SKC,0.00,WeatherDisplay:10.37,2013-12-29 15:32:00,
2013-12-29 09:37:00,7.3,-10.6,30.39,ESE,120,18.4,18.4,43,0.00,CLR,SKC,0.00,WeatherDisplay:10.37,2013-12-29 15:37:00,
2013-12-29 09:42:00,7.5,-10.8,30.39,SE,125,17.3,17.3,42,0.00,CLR,SKC,0.00,WeatherDisplay:10.37,2013-12-29 15:42:00,
2013-12-29 09:47:00,7.7,-11.2,30.40,SE,145,23.0,23.0,41,0.00,CLR,SKC,0.00,WeatherDisplay:10.37,2013-12-29 15:47:00,
2013-12-29 09:52:00,8.0,-10.9,30.40,SSE,148,15.9,15.9,41,0.00,CLR,SKC,0.00,WeatherDisplay:10.37,2013-12-29 15:52:00,
2013-12-29 09:57:00,8.1,-10.3,30.40,SE,137,19.6,19.6,42,0.00,CLR,SKC,0.00,WeatherDisplay:10.37,2013-12-29 15:57:00,
2013-12-29 10:02:00,7.8,-11.1,30.40,SSE,149,20.7,20.7,41,0.00,CLR,SKC,0.00,WeatherDisplay:10.37,2013-12-29 16:02:00,
2013-12-29 10:07:00,7.7,-11.2,30.40,SE,137,19.1,19.1,41,0.00,CLR,SKC,0.00,WeatherDisplay:10.37,2013-12-29 16:07:00,
2013-12-29 10:12:00,7.6,-11.7,30.41,SE,143,19.6,19.6,40,0.00,CLR,SKC,0.00,WeatherDisplay:10.37,2013-12-29 16:12:00,
2013-12-29 10:17:00,7.8,-10.6,30.40,East,94,15.0,15.0,42,0.00,CLR,SKC,0.00,WeatherDisplay:10.37,2013-12-29 16:17:00,
2013-12-29 10:22:00,7.7,-10.7,30.41,ESE,113,19.6,19.6,42,0.00,CLR,SKC,0.00,WeatherDisplay:10.37,2013-12-29 16:22:00,
2013-12-29 10:27:00,7.8,-11.1,30.41,ESE,120,21.2,21.2,41,0.00,CLR,SKC,0.00,WeatherDisplay:10.37,2013-12-29 16:27:00,
2013-12-29 10:32:00,8.1,-10.8,30.41,East,101,20.1,20.1,41,0.00,CLR,SKC,0.00,WeatherDisplay:10.37,2013-12-29 16:32:00,
2013-12-29 10:37:00,8.7,-10.7,30.41,SSE,158,17.0,17.0,40,0.00,CLR,SKC,0.00,WeatherDisplay:10.37,2013-12-29 16:37:00,
2013-12-29 10:42:00,8.7,-11.3,30.41,SE,132,18.4,18.4,39,0.00,CLR,SKC,0.00,WeatherDisplay:10.37,2013-12-29 16:42:00,
2013-12-29 10:47:00,8.4,-12.0,30.41,South,186,20.7,20.7,38,0.00,CLR,SKC,0.00,WeatherDisplay:10.37,2013-12-29 16:47:00,
2013-12-29 10:52:00,8.1,-11.8,30.41,SE,141,16.1,16.1,39,0.00,CLR,SKC,0.00,WeatherDisplay:10.37,2013-12-29 16:52:00,
2013-12-29 10:57:00,8.3,-11.1,30.42,SE,124,12.7,12.7,40,0.00,CLR,SKC,0.00,WeatherDisplay:10.37,2013-12-29 16:57:00,
2013-12-29 11:02:00,8.6,-10.8,30.42,SE,142,19.1,19.1,40,0.00,CLR,SKC,0.00,WeatherDisplay:10.37,2013-12-29 17:02:00,
2013-12-29 11:07:00,8.6,-10.8,30.42,SE,143,15.0,15.0,40,0.00,CLR,SKC,0.00,WeatherDisplay:10.37,2013-12-29 17:07:00,
2013-12-29 11:12:00,8.6,-11.3,30.42,East,96,15.9,15.9,39,0.00,CLR,SKC,0.00,WeatherDisplay:10.37,2013-12-29 17:12:00,
2013-12-29 11:17:00,8.5,-12.0,30.41,SE,144,20.7,20.7,38,0.00,CLR,SKC,0.00,WeatherDisplay:10.37,2013-12-29 17:17:00,
2013-12-29 11:22:00,8.6,-11.9,30.42,SE,129,23.3,23.3,38,0.00,CLR,SKC,0.00,WeatherDisplay:10.37,2013-12-29 17:22:00,
2013-12-29 11:27:00,8.8,-11.2,30.41,SE,137,18.4,18.4,39,0.00,CLR,SKC,0.00,WeatherDisplay:10.37,2013-12-29 17:27:00,
2013-12-29 11:32:00,9.1,-10.9,30.41,SSE,149,18.4,18.4,39,0.00,CLR,SKC,0.00,WeatherDisplay:10.37,2013-12-29 17:32:00,
2013-12-29 11:37:00,9.1,-11.4,30.41,ESE,111,20.1,20.1,38,0.00,CLR,SKC,0.00,WeatherDisplay:10.37,2013-12-29 17:37:00,
2013-12-29 11:42:00,8.5,-13.6,30.41,SE,135,19.6,19.6,35,0.00,CLR,SKC,0.00,WeatherDisplay:10.37,2013-12-29 17:42:00,
2013-12-29 11:47:00,8.2,-13.9,30.40,ESE,116,15.0,15.0,35,0.00,CLR,SKC,0.00,WeatherDisplay:10.37,2013-12-29 17:47:00,
2013-12-29 11:52:00,8.4,-12.6,30.40,SE,136,15.0,15.0,37,0.00,CLR,SKC,0.00,WeatherDisplay:10.37,2013-12-29 17:52:00,
2013-12-29 11:57:00,8.7,-11.8,30.40,SE,132,20.1,20.1,38,0.00,CLR,SKC,0.00,WeatherDisplay:10.37,2013-12-29 17:57:00,
2013-12-29 12:02:00,8.7,-12.3,30.40,SE,144,13.8,13.8,37,0.00,,SKC,0.00,WeatherDisplay:10.37,2013-12-29 18:02:00,
2013-12-29 12:07:00,9.3,-11.8,30.39,SSE,158,16.1,16.1,37,0.00,,SKC,0.00,WeatherDisplay:10.37,2013-12-29 18:07:00,
2013-12-29 12:12:00,9.9,-11.2,30.39,ESE,120,17.3,17.3,37,0.00,,SKC,0.00,WeatherDisplay:10.37,2013-12-29 18:12:00,
2013-12-29 12:17:00,10.3,-10.9,30.39,SE,124,19.6,19.6,37,0.00,,SKC,0.00,WeatherDisplay:10.37,2013-12-29 18:17:00,
2013-12-29 12:22:00,10.3,-12.0,30.39,South,176,19.6,19.6,35,0.00,,SKC,0.00,WeatherDisplay:10.37,2013-12-29 18:22:00,
2013-12-29 12:27:00,10.3,-12.0,30.39,ESE,109,21.2,21.2,35,0.00,,SKC,0.00,WeatherDisplay:10.37,2013-12-29 18:27:00,
2013-12-29 12:32:00,10.6,-11.7,30.39,SSE,164,18.0,18.0,35,0.00,,SKC,0.00,WeatherDisplay:10.37,2013-12-29 18:32:00,
2013-12-29 12:37:00,10.8,-12.1,30.39,ESE,114,19.6,19.6,34,0.00,,SKC,0.00,WeatherDisplay:10.37,2013-12-29 18:37:00,
2013-12-29 12:42:00,11.2,-10.6,30.38,SSE,154,12.7,12.7,36,0.00,,SKC,0.00,WeatherDisplay:10.37,2013-12-29 18:42:00,
2013-12-29 12:47:00,11.3,-11.7,30.38,SSE,156,19.6,19.6,34,0.00,,SKC,0.00,WeatherDisplay:10.37,2013-12-29 18:47:00,
2013-12-29 12:52:00,11.8,-11.2,30.38,ESE,112,17.0,17.0,34,0.00,,SKC,0.00,WeatherDisplay:10.37,2013-12-29 18:52:00,
2013-12-29 12:57:00,12.2,-11.5,30.38,South,169,19.6,19.6,33,0.00,,SKC,0.00,WeatherDisplay:10.37,2013-12-29 18:57:00,
2013-12-29 13:02:00,12.1,-11.0,30.37,SE,141,20.7,20.7,34,0.00,,SKC,0.00,WeatherDisplay:10.37,2013-12-29 19:02:00,
2013-12-29 13:07:00,12.4,-10.7,30.38,ESE,116,18.0,18.0,34,0.00,,SKC,0.00,WeatherDisplay:10.37,2013-12-29 19:07:00,
2013-12-29 13:12:00,12.6,-11.1,30.37,SSE,153,17.3,17.3,33,0.00,,SKC,0.00,WeatherDisplay:10.37,2013-12-29 19:12:00,
2013-12-29 13:17:00,12.8,-10.9,30.37,SSE,150,19.6,19.6,33,0.00,,SKC,0.00,WeatherDisplay:10.37,2013-12-29 19:17:00,
2013-12-29 13:22:00,13.1,-10.7,30.38,ESE,117,23.3,23.3,33,0.00,,SKC,0.00,WeatherDisplay:10.37,2013-12-29 19:22:00,
2013-12-29 13:27:00,13.0,-12.0,30.37,ESE,122,18.4,18.4,31,0.00,,SKC,0.00,WeatherDisplay:10.37,2013-12-29 19:27:00,
2013-12-29 13:32:00,13.0,-12.0,30.38,East,98,18.4,18.4,31,0.00,,SKC,0.00,WeatherDisplay:10.37,2013-12-29 19:32:00,
2013-12-29 13:37:00,12.8,-12.9,30.38,SE,125,22.3,22.3,30,0.00,,SKC,0.00,WeatherDisplay:10.37,2013-12-29 19:37:00,
2013-12-29 13:42:00,13.0,-12.0,30.37,ESE,118,20.1,20.1,31,0.00,,SKC,0.00,WeatherDisplay:10.37,2013-12-29 19:42:00,
2013-12-29 13:47:00,13.2,-11.2,30.37,SE,139,17.3,17.3,32,0.00,,SKC,0.00,WeatherDisplay:10.37,2013-12-29 19:47:00,
2013-12-29 13:52:00,13.7,-10.8,30.37,South,172,11.7,11.7,32,0.00,,SKC,0.00,WeatherDisplay:10.37,2013-12-29 19:52:00,
2013-12-29 13:57:00,13.7,-12.1,30.37,SE,145,16.1,16.1,30,0.00,,SKC,0.00,WeatherDisplay:10.37,2013-12-29 19:57:00,
2013-12-29 14:02:00,13.8,-12.0,30.36,South,172,15.0,15.0,30,0.00,,SKC,0.00,WeatherDisplay:10.37,2013-12-29 20:02:00,
2013-12-29 14:07:00,14.1,-11.1,30.36,ESE,115,15.0,15.0,31,0.00,,SKC,0.00,WeatherDisplay:10.37,2013-12-29 20:07:00,
2013-12-29 14:12:00,13.9,-11.9,30.37,ESE,109,13.8,13.8,30,0.00,,SKC,0.00,WeatherDisplay:10.37,2013-12-29 20:12:00,
2013-12-29 14:17:00,13.9,-11.9,30.37,SE,124,18.4,18.4,30,0.00,,SKC,0.00,WeatherDisplay:10.37,2013-12-29 20:17:00,
2013-12-29 14:22:00,14.2,-11.6,30.37,SE,136,15.9,15.9,30,0.00,,SKC,0.00,WeatherDisplay:10.37,2013-12-29 20:22:00,
2013-12-29 14:27:00,14.0,-12.5,30.37,SSW,192,18.4,18.4,29,0.00,,SKC,0.00,WeatherDisplay:10.37,2013-12-29 20:27:00,
2013-12-29 14:32:00,14.3,-12.2,30.37,SE,127,16.1,16.1,29,0.00,,SKC,0.00,WeatherDisplay:10.37,2013-12-29 20:32:00,
2013-12-29 14:37:00,14.2,-11.6,30.37,ESE,106,15.9,15.9,30,0.00,,SKC,0.00,WeatherDisplay:10.37,2013-12-29 20:37:00,
2013-12-29 14:42:00,14.1,-12.4,30.37,SE,140,17.3,17.3,29,0.00,,SKC,0.00,WeatherDisplay:10.37,2013-12-29 20:42:00,
2013-12-29 14:47:00,14.1,-11.7,30.37,South,174,13.8,13.8,30,0.00,,SKC,0.00,WeatherDisplay:10.37,2013-12-29 20:47:00,
2013-12-29 14:52:00,14.5,-11.4,30.37,SE,141,11.7,11.7,30,0.00,,SKC,0.00,WeatherDisplay:10.37,2013-12-29 20:52:00,
2013-12-29 14:57:00,14.7,-11.2,30.37,SSE,155,12.7,12.7,30,0.00,,SKC,0.00,WeatherDisplay:10.37,2013-12-29 20:57:00,
2013-12-29 15:02:00,14.4,-12.8,30.37,South,188,15.0,15.0,28,0.00,,SKC,0.00,WeatherDisplay:10.37,2013-12-29 21:02:00,
2013-12-29 15:07:00,14.5,-11.4,30.37,SE,141,10.4,10.4,30,0.00,,SKC,0.00,WeatherDisplay:10.37,2013-12-29 21:07:00,
2013-12-29 15:12:00,14.5,-12.0,30.38,SE,134,12.7,12.7,29,0.00,,SKC,0.00,WeatherDisplay:10.37,2013-12-29 21:12:00,
2013-12-29 15:17:00,14.5,-11.4,30.38,SSE,156,13.8,13.8,30,0.00,,SKC,0.00,WeatherDisplay:10.37,2013-12-29 21:17:00,
2013-12-29 15:22:00,14.4,-11.4,30.38,ESE,117,15.9,15.9,30,0.00,,SKC,0.00,WeatherDisplay:10.37,2013-12-29 21:22:00,
2013-12-29 15:27:00,14.4,-12.1,30.38,South,172,15.0,15.0,29,0.00,,SKC,0.00,WeatherDisplay:10.37,2013-12-29 21:27:00,
2013-12-29 15:32:00,14.1,-13.8,30.39,SE,132,16.1,16.1,27,0.00,,SKC,0.00,WeatherDisplay:10.37,2013-12-29 21:32:00,
2013-12-29 15:37:00,14.1,-12.4,30.38,SSE,150,11.7,11.7,29,0.00,,SKC,0.00,WeatherDisplay:10.37,2013-12-29 21:37:00,
2013-12-29 15:42:00,14.4,-12.1,30.38,ESE,108,6.9,6.9,29,0.00,,SKC,0.00,WeatherDisplay:10.37,2013-12-29 21:42:00,
2013-12-29 15:47:00,14.5,-12.0,30.38,SE,139,12.7,12.7,29,0.00,,SKC,0.00,WeatherDisplay:10.37,2013-12-29 21:47:00,
2013-12-29 15:52:00,14.3,-12.9,30.39,SE,136,13.8,13.8,28,0.00,,SKC,0.00,WeatherDisplay:10.37,2013-12-29 21:52:00,
2013-12-29 15:57:00,14.1,-12.4,30.39,South,181,12.7,12.7,29,0.00,,SKC,0.00,WeatherDisplay:10.37,2013-12-29 21:57:00,
2013-12-29 16:02:00,14.2,-12.3,30.39,SE,146,11.5,11.5,29,0.00,,SKC,0.00,WeatherDisplay:10.37,2013-12-29 22:02:00,
2013-12-29 16:07:00,14.1,-13.1,30.39,SSE,158,13.8,13.8,28,0.00,,SKC,0.00,WeatherDisplay:10.37,2013-12-29 22:07:00,
2013-12-29 16:12:00,14.1,-12.4,30.39,SE,131,11.7,11.7,29,0.00,,SKC,0.00,WeatherDisplay:10.37,2013-12-29 22:12:00,
2013-12-29 16:17:00,14.0,-12.5,30.39,SE,142,12.7,12.7,29,0.00,,SKC,0.00,WeatherDisplay:10.37,2013-12-29 22:17:00,
2013-12-29 16:22:00,13.9,-12.6,30.39,SSE,154,12.7,12.7,29,0.00,,SKC,0.00,WeatherDisplay:10.37,2013-12-29 22:22:00,
2013-12-29 16:27:00,13.7,-12.7,30.39,SE,138,12.7,12.7,29,0.00,,SKC,0.00,WeatherDisplay:10.37,2013-12-29 22:27:00,
2013-12-29 16:32:00,13.5,-12.9,30.39,SSE,147,8.5,8.5,29,0.00,,SKC,0.00,WeatherDisplay:10.37,2013-12-29 22:32:00,
2013-12-29 16:37:00,13.4,-13.0,30.40,SE,139,11.7,11.7,29,0.00,,SKC,0.00,WeatherDisplay:10.37,2013-12-29 22:37:00,
2013-12-29 16:42:00,13.3,-12.4,30.39,South,189,9.5,9.5,30,0.00,,SKC,0.00,WeatherDisplay:10.37,2013-12-29 22:42:00,
2013-12-29 16:47:00,12.8,-12.9,30.39,SSE,162,8.1,8.1,30,0.00,,SKC,0.00,WeatherDisplay:10.37,2013-12-29 22:47:00,
2013-12-29 16:52:00,12.5,-12.5,30.39,SE,146,8.5,8.5,31,0.00,,SKC,0.00,WeatherDisplay:10.37,2013-12-29 22:52:00,
2013-12-29 16:57:00,12.3,-12.6,30.39,SE,139,6.9,6.9,31,0.00,,SKC,0.00,WeatherDisplay:10.37,2013-12-29 22:57:00,
2013-12-29 17:02:00,12.0,-12.3,30.39,SE,143,6.4,6.4,32,0.00,,SKC,0.00,WeatherDisplay:10.37,2013-12-29 23:02:00,
2013-12-29 17:07:00,11.8,-11.8,30.39,SSE,160,7.4,7.4,33,0.00,,SKC,0.00,WeatherDisplay:10.37,2013-12-29 23:07:00,
2013-12-29 17:12:00,11.6,-12.0,30.39,SE,132,7.4,7.4,33,0.00,,SKC,0.00,WeatherDisplay:10.37,2013-12-29 23:12:00,
2013-12-29 17:17:00,11.4,-11.6,30.39,SE,135,8.5,8.5,34,0.00,,SKC,0.00,WeatherDisplay:10.37,2013-12-29 23:17:00,
2013-12-29 17:22:00,11.2,-11.8,30.39,ESE,117,6.9,6.9,34,0.00,,SKC,0.00,WeatherDisplay:10.37,2013-12-29 23:22:00,
2013-12-29 17:27:00,11.1,-11.9,30.39,SE,143,6.9,6.9,34,0.00,,SKC,0.00,WeatherDisplay:10.37,2013-12-29 23:27:00,
2013-12-29 17:32:00,10.9,-12.0,30.39,SE,132,3.5,3.5,34,0.00,,SKC,0.00,WeatherDisplay:10.37,2013-12-29 23:32:00,
2013-12-29 17:37:00,10.6,-11.2,30.38,SE,127,2.3,2.3,36,0.00,,SKC,0.00,WeatherDisplay:10.37,2013-12-29 23:37:00,
2013-12-29 17:42:00,10.4,-11.3,30.39,SE,126,4.6,4.6,36,0.00,,SKC,0.00,WeatherDisplay:10.37,2013-12-29 23:42:00,
2013-12-29 17:47:00,10.2,-11.0,30.38,SE,129,3.5,3.5,37,0.00,,SKC,0.00,WeatherDisplay:10.37,2013-12-29 23:47:00,
2013-12-29 17:52:00,9.9,-10.7,30.38,ESE,122,2.3,2.3,38,0.00,,SKC,0.00,WeatherDisplay:10.37,2013-12-29 23:52:00,
2013-12-29 17:57:00,9.7,-10.9,30.38,SE,124,3.5,3.5,38,0.00,,SKC,0.00,WeatherDisplay:10.37,2013-12-29 23:57:00,
2013-12-29 18:02:00,9.5,-10.5,30.38,SE,125,2.3,2.3,39,0.00,,SKC,0.00,WeatherDisplay:10.37,2013-12-30 00:02:00,
2013-12-29 18:07:00,9.3,-10.2,30.38,ESE,123,2.3,2.3,40,0.00,,SKC,0.00,WeatherDisplay:10.37,2013-12-30 00:07:00,
2013-12-29 18:12:00,9.2,-10.3,30.38,SE,128,3.5,3.5,40,0.00,,SKC,0.00,WeatherDisplay:10.37,2013-12-30 00:12:00,
2013-12-29 18:17:00,9.0,-10.5,30.39,SE,135,2.3,2.3,40,0.00,,SKC,0.00,WeatherDisplay:10.37,2013-12-30 00:17:00,
2013-12-29 18:22:00,8.8,-9.7,30.39,SE,127,1.2,1.2,42,0.00,,SKC,0.00,WeatherDisplay:10.37,2013-12-30 00:22:00,
2013-12-29 18:27:00,8.7,-9.8,30.39,ESE,116,2.1,2.1,42,0.00,,SKC,0.00,WeatherDisplay:10.37,2013-12-30 00:27:00,
2013-12-29 18:32:00,8.4,-9.1,30.39,ESE,119,3.5,3.5,44,0.00,,SKC,0.00,WeatherDisplay:10.37,2013-12-30 00:32:00,
2013-12-29 18:37:00,8.2,-9.3,30.39,SE,128,2.3,2.3,44,0.00,,SKC,0.00,WeatherDisplay:10.37,2013-12-30 00:37:00,
2013-12-29 18:42:00,8.3,-9.2,30.39,ESE,119,2.3,2.3,44,0.00,,SKC,0.00,WeatherDisplay:10.37,2013-12-30 00:42:00,
2013-12-29 18:47:00,8.2,-9.3,30.39,SE,145,1.1,1.1,44,0.00,,SKC,0.00,WeatherDisplay:10.37,2013-12-30 00:47:00,
2013-12-29 18:52:00,8.0,-9.4,30.39,SE,144,0.0,0.0,44,0.00,,SKC,0.00,WeatherDisplay:10.37,2013-12-30 00:52:00,
2013-12-29 18:57:00,8.1,-9.8,30.39,SE,144,2.3,2.3,43,0.00,,SKC,0.00,WeatherDisplay:10.37,2013-12-30 00:57:00,
2013-12-29 19:02:00,8.2,-10.2,30.39,SSE,157,2.3,2.3,42,0.00,,SKC,0.00,WeatherDisplay:10.37,2013-12-30 01:02:00,
2013-12-29 19:07:00,8.2,-9.7,30.39,SE,132,1.2,1.2,43,0.00,,SKC,0.00,WeatherDisplay:10.37,2013-12-30 01:07:00,
2013-12-29 19:12:00,7.9,-9.5,30.39,SE,132,1.2,1.2,44,0.00,,SKC,0.00,WeatherDisplay:10.37,2013-12-30 01:12:00,
2013-12-29 19:17:00,7.6,-9.4,30.39,SE,132,0.0,0.0,45,0.00,,SKC,0.00,WeatherDisplay:10.37,2013-12-30 01:17:00,
2013-12-29 19:22:00,7.3,-9.6,30.39,SE,132,0.0,0.0,45,0.00,,SKC,0.00,WeatherDisplay:10.37,2013-12-30 01:22:00,
2013-12-29 19:27:00,7.0,-9.9,30.38,SE,132,0.0,0.0,45,0.00,,SKC,0.00,WeatherDisplay:10.37,2013-12-30 01:27:00,
2013-12-29 19:32:00,6.9,-10.0,30.39,SE,132,1.2,1.2,45,0.00,,SKC,0.00,WeatherDisplay:10.37,2013-12-30 01:32:00,
2013-12-29 19:35:00,6.9,-9.6,30.39,SE,132,1.2,0.0,46,0.00,,SKC,0.00,WeatherDisplay:10.37,2013-12-30 01:35:00,
2013-12-29 19:40:00,6.9,-9.6,30.39,SSE,165,1.2,1.2,46,0.00,,SKC,0.00,WeatherDisplay:10.37,2013-12-30 01:40:00,
2013-12-29 19:45:00,6.7,-9.3,30.39,SSE,165,0.0,0.0,47,0.00,,SKC,0.00,WeatherDisplay:10.37,2013-12-30 01:45:00,
2013-12-29 19:50:00,6.7,-9.3,30.38,SSE,165,0.0,0.0,47,0.00,,SKC,0.00,WeatherDisplay:10.37,2013-12-30 01:50:00,
2013-12-29 19:55:00,6.7,-9.7,30.38,SSE,165,0.0,0.0,46,0.00,,SKC,0.00,WeatherDisplay:10.37,2013-12-30 01:55:00,
2013-12-29 20:00:00,6.6,-9.8,30.38,SSE,165,0.0,0.0,46,0.00,,SKC,0.00,WeatherDisplay:10.37,2013-12-30 02:00:00,
2013-12-29 20:05:00,6.5,-9.5,30.38,SSE,165,0.0,0.0,47,0.00,,SKC,0.00,WeatherDisplay:10.37,2013-12-30 02:05:00,
2013-12-29 20:10:00,6.2,-9.3,30.38,SSE,165,1.1,0.0,48,0.00,,SKC,0.00,WeatherDisplay:10.37,2013-12-30 02:10:00,
2013-12-29 20:15:00,6.1,-8.6,30.38,SSE,165,1.2,1.2,50,0.00,,SKC,0.00,WeatherDisplay:10.37,2013-12-30 02:15:00,
2013-12-29 20:20:00,6.1,-8.2,30.38,SSE,165,0.0,0.0,51,0.00,,SKC,0.00,WeatherDisplay:10.37,2013-12-30 02:20:00,
2013-12-29 20:25:00,5.6,-8.3,30.38,SSE,165,0.0,0.0,52,0.00,,SKC,0.00,WeatherDisplay:10.37,2013-12-30 02:25:00,
2013-12-29 20:30:00,5.0,-8.4,30.38,SSE,165,0.0,0.0,53,0.00,,SKC,0.00,WeatherDisplay:10.37,2013-12-30 02:30:00,
2013-12-29 20:35:00,4.6,-8.0,30.38,SSE,165,0.0,0.0,55,0.00,,SKC,0.00,WeatherDisplay:10.37,2013-12-30 02:35:00,
2013-12-29 20:40:00,4.1,-7.8,30.38,SSE,165,0.0,0.0,57,0.00,,SKC,0.00,WeatherDisplay:10.37,2013-12-30 02:40:00,
2013-12-29 20:45:00,4.2,-7.7,30.38,SSE,165,0.0,0.0,57,0.00,,SKC,0.00,WeatherDisplay:10.37,2013-12-30 02:45:00,
2013-12-29 20:50:00,4.1,-7.4,30.38,SSE,165,0.0,0.0,58,0.00,,SKC,0.00,WeatherDisplay:10.37,2013-12-30 02:50:00,
2013-12-29 20:55:00,3.8,-7.7,30.38,SSE,165,0.0,0.0,58,0.00,,SKC,0.00,WeatherDisplay:10.37,2013-12-30 02:55:00,
2013-12-29 21:00:00,3.6,-7.5,30.38,SSE,165,0.0,0.0,59,0.00,,SKC,0.00,WeatherDisplay:10.37,2013-12-30 03:00:00,
2013-12-29 21:05:00,3.7,-6.8,30.37,SSE,165,0.0,0.0,61,0.00,,SKC,0.00,WeatherDisplay:10.37,2013-12-30 03:05:00,
2013-12-29 21:10:00,3.4,-6.7,30.37,SSE,165,0.0,0.0,62,0.00,,SKC,0.00,WeatherDisplay:10.37,2013-12-30 03:10:00,
2013-12-29 21:15:00,3.1,-6.3,30.37,SSE,165,0.0,0.0,64,0.00,,SKC,0.00,WeatherDisplay:10.37,2013-12-30 03:15:00,
2013-12-29 21:20:00,3.0,-6.4,30.37,SSE,165,0.0,0.0,64,0.00,,SKC,0.00,WeatherDisplay:10.37,2013-12-30 03:20:00,
2013-12-29 21:25:00,3.0,-6.4,30.37,SSE,165,0.0,0.0,64,0.00,,SKC,0.00,WeatherDisplay:10.37,2013-12-30 03:25:00,
2013-12-29 21:30:00,2.9,-6.5,30.37,SSE,165,0.0,0.0,64,0.00,,SKC,0.00,WeatherDisplay:10.37,2013-12-30 03:30:00,
2013-12-29 21:35:00,2.5,-6.9,30.36,SSE,165,0.0,0.0,64,0.00,,SKC,0.00,WeatherDisplay:10.37,2013-12-30 03:35:00,
2013-12-29 21:40:00,2.5,-6.6,30.36,SSE,165,0.0,0.0,65,0.00,,SKC,0.00,WeatherDisplay:10.37,2013-12-30 03:40:00,
2013-12-29 21:45:00,2.8,-7.3,30.36,SSE,165,0.0,0.0,62,0.00,,SKC,0.00,WeatherDisplay:10.37,2013-12-30 03:45:00,
2013-12-29 21:50:00,2.7,-7.7,30.36,SSE,165,0.0,0.0,61,0.00,,SKC,0.00,WeatherDisplay:10.37,2013-12-30 03:50:00,
2013-12-29 21:55:00,2.6,-7.1,30.36,SSE,165,0.0,0.0,63,0.00,,SKC,0.00,WeatherDisplay:10.37,2013-12-30 03:55:00,
2013-12-29 22:00:00,2.6,-7.8,30.36,SSE,165,0.0,0.0,61,0.00,,SKC,0.00,WeatherDisplay:10.37,2013-12-30 04:00:00,
2013-12-29 22:05:00,2.6,-7.8,30.36,SSE,165,0.0,0.0,61,0.00,,SKC,0.00,WeatherDisplay:10.37,2013-12-30 04:05:00,
2013-12-29 22:10:00,2.8,-8.0,30.36,SSE,165,0.0,0.0,60,0.00,,SKC,0.00,WeatherDisplay:10.37,2013-12-30 04:10:00,
2013-12-29 22:15:00,3.2,-7.9,30.36,SSE,165,0.0,0.0,59,0.00,,SKC,0.00,WeatherDisplay:10.37,2013-12-30 04:15:00,
2013-12-29 22:20:00,3.0,-7.4,30.36,SSE,165,0.0,0.0,61,0.00,,SKC,0.00,WeatherDisplay:10.37,2013-12-30 04:20:00,
2013-12-29 22:25:00,2.9,-7.9,30.36,SSE,165,0.0,0.0,60,0.00,,SKC,0.00,WeatherDisplay:10.37,2013-12-30 04:25:00,
2013-12-29 22:30:00,2.7,-8.1,30.36,SSE,165,0.0,0.0,60,0.00,,SKC,0.00,WeatherDisplay:10.37,2013-12-30 04:30:00,
2013-12-29 22:35:00,2.9,-7.2,30.36,SSE,165,0.0,0.0,62,0.00,,SKC,0.00,WeatherDisplay:10.37,2013-12-30 04:35:00,
2013-12-29 22:40:00,2.8,-7.6,30.36,SSE,165,0.0,0.0,61,0.00,,SKC,0.00,WeatherDisplay:10.37,2013-12-30 04:40:00,
2013-12-29 22:45:00,2.6,-7.1,30.36,SSE,165,0.0,0.0,63,0.00,,SKC,0.00,WeatherDisplay:10.37,2013-12-30 04:45:00,
2013-12-29 22:50:00,2.2,-7.2,30.36,SSE,165,0.0,0.0,64,0.00,,SKC,0.00,WeatherDisplay:10.37,2013-12-30 04:50:00,
2013-12-29 22:55:00,2.3,-5.9,30.37,SSE,165,0.0,0.0,68,0.00,,SKC,0.00,WeatherDisplay:10.37,2013-12-30 04:55:00,
2013-12-29 23:00:00,2.2,-6.0,30.37,SSE,165,0.0,0.0,68,0.00,,SKC,0.00,WeatherDisplay:10.37,2013-12-30 05:00:00,
2013-12-29 23:01:00,2.2,-5.6,30.37,SSE,165,0.0,0.0,69,0.00,,SKC,0.00,WeatherDisplay:10.37,2013-12-30 05:01:00,
2013-12-29 23:02:00,2.2,-5.6,30.37,SSE,165,0.0,0.0,69,0.00,,SKC,0.00,WeatherDisplay:10.37,2013-12-30 05:02:00,
2013-12-29 23:07:00,2.1,-5.4,30.38,SSE,165,0.0,0.0,70,0.00,,SKC,0.00,WeatherDisplay:10.37,2013-12-30 05:07:00,
2013-12-29 23:12:00,2.0,-5.5,30.38,SSE,165,0.0,0.0,70,0.00,,SKC,0.00,WeatherDisplay:10.37,2013-12-30 05:12:00,
2013-12-29 23:17:00,2.0,-5.0,30.38,SSE,165,0.0,0.0,72,0.00,,SKC,0.00,WeatherDisplay:10.37,2013-12-30 05:17:00,
2013-12-29 23:22:00,2.1,-5.2,30.38,SSE,165,0.0,0.0,71,0.00,,SKC,0.00,WeatherDisplay:10.37,2013-12-30 05:22:00,
2013-12-29 23:27:00,2.1,-5.4,30.37,SSE,165,0.0,0.0,70,0.00,,SKC,0.00,WeatherDisplay:10.37,2013-12-30 05:27:00,
2013-12-29 23:32:00,2.2,-5.6,30.37,SSE,165,0.0,0.0,69,0.00,,SKC,0.00,WeatherDisplay:10.37,2013-12-30 05:32:00,
2013-12-29 23:37:00,2.0,-5.8,30.38,SSE,165,0.0,0.0,69,0.00,,SKC,0.00,WeatherDisplay:10.37,2013-12-30 05:37:00,
2013-12-29 23:42:00,1.8,-5.7,30.37,SSE,165,0.0,0.0,70,0.00,,SKC,0.00,WeatherDisplay:10.37,2013-12-30 05:42:00,
2013-12-29 23:47:00,2.0,-5.8,30.37,SSE,165,0.0,0.0,69,0.00,,SKC,0.00,WeatherDisplay:10.37,2013-12-30 05:47:00,
2013-12-29 23:52:00,2.2,-6.0,30.37,SSE,165,0.0,0.0,68,0.00,,SKC,0.00,WeatherDisplay:10.37,2013-12-30 05:52:00,
2013-12-29 23:57:00,2.2,-6.0,30.37,SSE,165,0.0,0.0,68,0.00,,SKC,0.00,WeatherDisplay:10.37,2013-12-30 05:57:00,